Regional Weather Roundup
Issued by NWS Newport/Morehead, NC

Current Version | Previous Version | Graphics & Text | Print | Product List | Glossary On
Versions: 1 2 3 4 5 6 7 8 9 10 11 12 13 14 15 16 17 18 19 20 21 22 23 24 25 26 27 28 29 30 31 32 33 34 35 36 37 38 39 40 41 42 43 44 45 46 47 48 49 50
000 ASUS42 KMHX 052012 RWRMHX WEATHER ROUNDUP FOR EASTERN NORTH CAROLINA NATIONAL WEATHER SERVICE NEWPORT/MOREHEAD CITY NC 300 PM EST MON DEC 05 2016 NOTE: "FAIR" INDICATES FEW OR NO CLOUDS BELOW 12,000 FEET WITH NO SIGNIFICANT WEATHER AND/OR OBSTRUCTIONS TO VISIBILITY NCZ015>017-031-032-045>047-102-103-052100- NORTH COAST CITY SKY/WX TMP DP RH WIND PRES REMARKS EDENTON SUNNY 58 48 69 N8 30.01R ELIZABETH CITY MOSUNNY 56 46 69 N15 30.00R KITTY HAWK PTCLDY 52 49 89 N10G18 29.98R MANTEO MOSUNNY 53 46 79 N14G22 29.99R $$ NCZ045>047-081-094-103-104-052100- CENTRAL COAST CITY SKY/WX TMP DP RH WIND PRES REMARKS FRISCO MOSUNNY 55 50 83 N9G18 29.97S $$ NCZ095-097-098-100-101-052100- SOUTHERN COAST CITY SKY/WX TMP DP RH WIND PRES REMARKS BEAUFORT PTSUNNY 59 50 72 N13 29.98R CEDAR ISLAND NOT AVBL JACKSONVILLE PTSUNNY 59 49 69 N12 29.97R PINEY ISLAND PTCLDY N/A N/A N/A N12 29.98R WILMINGTON CLOUDY 60 50 69 N9 29.97R $$ NCZ011>013-027>030-043-044-078>080-089-090>093-098-052100- COASTAL PLAIN CITY SKY/WX TMP DP RH WIND PRES REMARKS AHOSKIE SUNNY 55 44 68 N10 30.02R CLINTON MOSUNNY 61 47 61 NE8 29.99S ELIZABETHTOWN NOT AVBL GOLDSBORO SUNNY 60 45 57 N8 29.97S GREENVILLE MOSUNNY 57 46 67 N7 30.01R HAVELOCK PTSUNNY 60 49 66 N9 29.99R KENANSVILLE MOSUNNY 59 45 58 N10 29.99R KINSTON SUNNY 59 46 63 N9 29.99S NEW BERN MOSUNNY 58 48 69 N9 29.99R RICHLANDS MOSUNNY 58 48 69 N8 29.98S ROCKY MOUNT SUNNY 59 45 59 N12 30.00R WASHINGTON MOSUNNY 59 47 65 N10 30.00R WHITEVILLE MOSUNNY 60 49 66 N6 29.98R $$ AMZ130-135-150-152-154-156-158-170-250-252-270-ANZ085-086-088-633-658-670-052100- MARINE OBSERVATIONS STATION/POSITION TIME TEMP WIND PRES WAVE SWELL AIR SEA DIR/SP/G HT/PER HT/PER (UTC) (F) (DEG/KT/KT) (MB) (FT/S) (FT/S) CHESAPEAKE LIGHT NOT AVBL 64 E VA BEACH 1950 53 60 350/ 23/ 27 1014.2 5/ 5 2/ 8 DUCK 1942 50 54 350/ 21/ 25 1014.8 2 E DUCK NOT AVBL OREGON INLET 1942 53 55 350/ 14/ 21 1014.9 13E OREGON INLT NOT AVBL HATTERAS CG 1942 54 60 10/ 17/ 20 1014.3 DIAMOND BUOY 1950 58 72 10/ 19/ 23 1014.1 6/ 7 3/15 CAPE LOOKOUT 2000 56 10/ 13/ 16 1014.5 BEAUFORT LAB 1942 57 56 10/ 11/ 15 1013.8 30 SE NEW RVR IN 1908 54 71 10/ 14/ 21 1013.7 30 SE NEW RVR IN NOT AVBL 27 SE WRIGHTSVLE 1908 58 68 10/ 16/ 21 1014.0 5 SE WRIGHTSVLE 1908 57 63 20/ 12/ 17 1013.7 225 S CAPE HAT 1950 73 73 200/ 19/ 25 1014.0 6/ 6 2/10 41 SE CHARLESTON 1950 63 74 10/ 10/ 12 1013.3 5/ 7 5/ 7 $$

USA.gov is the U.S. government's official web portal to all federal, state and local government web resources and services.